Location: Hilton Head Island
(32.2163°N, 80.7526°W)
Time: 17:34:06
(UTC-04:00)

Altair - Pass Details

Date: 25 February 2026
Orbit: 1502 x 1682 km, 47.2° (Epoch: 10 March)

Event Time Altitude Azimuth Distance (km) Brightness Sun altitude
Exits shadow 05:09:44 23° 309° (NW) 2,782 8.4 -23.0°
Maximum altitude 05:14:02 33° 352° (N) 2,353 8.4 -22.1°
Drops below altitude 10° 05:22:16 10° 53° (NE) 3,736 10.3 -20.4°
Sets 05:25:52 0° 63° (ENE) 4,746 11.2 -19.6°
